WetterOnline ( https://www.wetteronline.de )

Wetter aktuell Tecklenburg

Aktuelles Wetter: Belm (103m)

6-stündlich | Neueste Meldungen
Ortszeit Temperatur Wetter
Di, 23.07. 2:00 17.6° C wolkig
Mo, 22.07. 20:00 26.8° C leicht bewölkt
Mo, 22.07. 14:00 23.5° C bedeckt
Mo, 22.07. 8:00 16.8° C bedeckt
Mo, 22.07. 2:00 14.1° C bedeckt
So, 21.07. 20:00 22.3° C wolkig
So, 21.07. 14:00 22.4° C bewölkt
So, 21.07. 8:00 16.8° C fast wolkenlos
Ortszeit Temperatur Wetter
Di, 23.07. 2:00 17.6° C wolkig
Di, 23.07. 1:40 17.4° C wolkig
Di, 23.07. 1:30 17.9° C wolkig
Di, 23.07. 1:20 17.9° C wolkig
Di, 23.07. 1:10 18.5° C leicht bewölkt
Di, 23.07. 1:00 18.5° C wolkig
Di, 23.07. 0:50 18.5° C wolkig
Di, 23.07. 0:30 18.4° C wolkig
Di, 23.07. 0:00 18.8° C leicht bewölkt
Mo, 22.07. 23:30 20.6° C leicht bewölkt
Mo, 22.07. 23:00 22.2° C wolkig
Ortszeit Relative Feuchte Sichtweite
Di, 23.07. 2:00 89% 24 km
Mo, 22.07. 20:00 48% 70 km
Mo, 22.07. 14:00 49% 35 km
Mo, 22.07. 8:00 74% 40 km
Mo, 22.07. 2:00 85% 35 km
So, 21.07. 20:00 49% 70 km
So, 21.07. 14:00 51% 50 km
So, 21.07. 8:00 87% 18 km
Ortszeit Relative Feuchte Sichtweite
Di, 23.07. 2:00 89% 24 km
Di, 23.07. 1:40 90% -
Di, 23.07. 1:30 85% 22 km
Di, 23.07. 1:20 85% -
Di, 23.07. 1:10 84% -
Di, 23.07. 1:00 85% 26 km
Di, 23.07. 0:50 85% -
Di, 23.07. 0:30 84% 28 km
Di, 23.07. 0:00 84% 30 km
Mo, 22.07. 23:30 75% 40 km
Mo, 22.07. 23:00 69% 45 km
Ortszeit Niederschlagsmenge Niederschlagsart
Di, 23.07. 2:00 0.0 l/m2 in 6 Std. -
Mo, 22.07. 20:00 0.1 l/m2 in 12 Std. Regen
Mo, 22.07. 14:00 0.1 l/m2 in 6 Std. Regen
Mo, 22.07. 8:00 0.0 l/m2 in 12 Std. -
Mo, 22.07. 2:00 0.0 l/m2 in 6 Std. -
So, 21.07. 20:00 0.0 l/m2 in 12 Std. -
So, 21.07. 14:00 0.0 l/m2 in 6 Std. -
So, 21.07. 8:00 0.0 l/m2 in 12 Std. -
Ortszeit Niederschlagsmenge Niederschlagsart
Di, 23.07. 2:00 0.0 l/m2 in 1 Std. -
Di, 23.07. 1:40 keine Meldung -
Di, 23.07. 1:30 0.0 l/m2 in 1 Std. -
Di, 23.07. 1:20 keine Meldung -
Di, 23.07. 1:10 keine Meldung -
Di, 23.07. 1:00 0.0 l/m2 in 1 Std. -
Di, 23.07. 0:50 keine Meldung -
Di, 23.07. 0:30 0.0 l/m2 in 1 Std. -
Di, 23.07. 0:00 0.0 l/m2 in 1 Std. -
Mo, 22.07. 23:30 0.0 l/m2 in 1 Std. -
Mo, 22.07. 23:00 0.0 l/m2 in 1 Std. -
Ortszeit Stärke Spitze Richtung
km/h Bft. km/h Grad Sektor
Di, 23.07. 2:00 0 0 25 - -
Mo, 22.07. 20:00 18 3 40 250° W
Mo, 22.07. 14:00 19 3 31 260° W
Mo, 22.07. 8:00 4 1 11 190° S
Mo, 22.07. 2:00 4 1 18 330° NW
So, 21.07. 20:00 14 3 40 290° W
So, 21.07. 14:00 22 4 40 280° W
So, 21.07. 8:00 15 3 22 230° SW
Ortszeit Stärke Spitze Richtung
km/h Bft. km/h Grad Sektor
Di, 23.07. 2:00 0 0 4 - -
Di, 23.07. 1:40 2 1 - 210° SW
Di, 23.07. 1:30 2 1 4 250° W
Di, 23.07. 1:20 2 1 - 250° W
Di, 23.07. 1:10 2 1 - 360° N
Di, 23.07. 1:00 0 0 4 - -
Di, 23.07. 0:50 2 1 - 310° NW
Di, 23.07. 0:30 2 1 4 140° SO
Di, 23.07. 0:00 4 1 4 130° SO
Mo, 22.07. 23:30 0 0 4 - -
Mo, 22.07. 23:00 0 0 7 - -
Ortszeit Untergrenze Bedeckung Gattung
total tief tief mittel hoch
Di, 23.07. 2:00 9000 m 7/8 0/8 - - -
Mo, 22.07. 20:00 10500 m 7/8 0/8 - - -
Mo, 22.07. 14:00 3000 m 8/8 8/8 - - -
Mo, 22.07. 8:00 3900 m 8/8 8/8 - - -
Mo, 22.07. 2:00 1380 m 8/8 8/8 - - -
So, 21.07. 20:00 7500 m 8/8 0/8 - - -
So, 21.07. 14:00 1350 m 7/8 7/8 - - -
So, 21.07. 8:00 330 m 1/8 1/8 - - -
Ortszeit Bedeckungsgrad in Achtel und Wolkenuntergrenze
Di, 23.07. 2:00 6(9000m) 7(10500m)
Di, 23.07. 1:40 7(9000m) 7(9000m)
Di, 23.07. 1:30 7(9000m) 7(9000m)
Di, 23.07. 1:20 7(9000m) 7(9000m)
Di, 23.07. 1:10 6(9000m)
Di, 23.07. 1:00 8(9000m) 8(10500m)
Di, 23.07. 0:50 8(9000m) 8(10500m)
Di, 23.07. 0:30 1(9000m) 7(10500m) 7(10500m)
Di, 23.07. 0:00 4(10500m) 4(10500m)
Mo, 22.07. 23:30 5(10500m) 3(12000m)
Mo, 22.07. 23:00 7(10500m)
Ortszeit Luftdruck NN (hPa) Tendenz (hPa in 3 Std.)
Di, 23.07. 2:00 1023 + 0,4
Mo, 22.07. 20:00 1021 - 0,6
Mo, 22.07. 14:00 1023 + 0,1
Mo, 22.07. 8:00 1023 - 0,3
Mo, 22.07. 2:00 1024 + 0,5
So, 21.07. 20:00 1021 + 0,5
So, 21.07. 14:00 1020 + 1,5
So, 21.07. 8:00 1017 + 2,2
Ortszeit Luftdruck NN (hPa) Tendenz (hPa in 3 Std.)
Di, 23.07. 2:00 1023 + 0,4
Di, 23.07. 1:40 1023 keine Meldung
Di, 23.07. 1:30 1023 + 0,5
Di, 23.07. 1:20 1023 keine Meldung
Di, 23.07. 1:10 1023 keine Meldung
Di, 23.07. 1:00 1023 + 0,8
Di, 23.07. 0:50 1023 keine Meldung
Di, 23.07. 0:30 1023 + 0,8
Di, 23.07. 0:00 1023 + 0,8
Mo, 22.07. 23:30 1022 + 0,8
Mo, 22.07. 23:00 1022 + 0,9
Ortszeit Schneehöhe (cm)
Di, 23.07. 2:00 -
Mo, 22.07. 20:00 -
Mo, 22.07. 14:00 -
Mo, 22.07. 8:00 -
Mo, 22.07. 2:00 -
So, 21.07. 20:00 -
So, 21.07. 14:00 -
So, 21.07. 8:00 -
Ortszeit Schneehöhe (cm)
Di, 23.07. 2:00 -
Di, 23.07. 1:40 -
Di, 23.07. 1:30 -
Di, 23.07. 1:20 -
Di, 23.07. 1:10 -
Di, 23.07. 1:00 -
Di, 23.07. 0:50 -
Di, 23.07. 0:30 -
Di, 23.07. 0:00 -
Mo, 22.07. 23:30 -
Mo, 22.07. 23:00 -
Link zu dieser Seite / Seite empfehlen

Das Wetter in ...